星链-30266 (STARLINK-30266 )

导读

STARLINK-30266是美国于2023年8月8日发射的星链卫星,属于SpaceX公司打造的星链星座网络的一员。星链计划旨在构建全球卫星互联网,为全球尤其是偏远地区提供高速宽带服务,该卫星入轨后将与其他星链卫星组网,进一步完善星链星座的覆盖能力与服务性能。

Basic Information
目录编号:
57529
目录名称:
STARLINK-30266
国际标识:
2023-115J
轨道中心:
EARTH
卫星名称:
星链-30266
卫星全名:
星链-30266 (STARLINK-30266 )
卫星状态:
在轨 (已飞行1044 天)
发射日期:
2023-08-08 UTC
国别 :
美国 (US)
星等 :
--
Orbit Information
数据来源 国际轨道数据 AOE轨道数据
星历时间 2026-06-17T00:26:41+0800
1天前
查看轨道信息
2026-06-17T02:00:00+0800
22小时前
查看轨道信息
半长轴 6861.203km 6861.195km
偏心率 0.0000983 0.000104
轨道倾角 43.002° 43.000°
近地点辐角 264.185° 244.545°
升交点赤经 162.332° 161.969°
平近点角 95.890° 112.321°
近地点 482.391km 482.344km
远地点 483.741km 483.772km
周期 94.267分钟 94.267分钟
每日圈数 15.275744 15.275771
Detailed Information
固有亮度:
5
最大亮度:
0.3
卫星平台:
Starlink v2.0 mini
覆盖范围:
全球
运营商:
太空探索技术公司
运营商所在国:
美国
制造商(研发单位):
太空探索技术公司
制造商所在国:
美国
使用方式:
暂无
Satellite Introduction
星链(Starlink)计划是由太空探索技术公司(SpaceX)提出的一个巨型低轨卫星互联网星座项目,计划在2019年至2024年间在太空搭建由约1.2万颗卫星组成的“星链”网络,其中1584颗将部署在地球上空550千米处的近地轨道,并从2020年开始工作。该卫星仍在工作。
2D Orbit Map
3D Orbit Map
Orbit Altitude Analysis Chart
Orbit Inclination Analysis Chart
Orbit Comprehensive Analysis Chart
View Comprehensive Chart